CW8746 Weather Reports


Display with metric or nautical units.
time (UTC)temp
F
wind
direction
speed
MPH
gust
MPH
rain 1hr
in
rain 24hr
in
rain mn
in
humidity
%
barometer
mb
20181219151021 42 0.0 0.0 0.00 0.01 0.01 96 1026.2
20181219150021 42 0.0 0.0 0.00 0.01 0.01 96 1026.2
20181219145023 42 0.0 0.0 0.00 0.01 0.01 96 1026.3
20181219144022 42 0.0 0.0 0.00 0.01 0.01 96 1026.2
20181219143016 41 0.0 0.0 0.00 0.01 0.01 96 1026.1
20181219142015 41 0.0 0.0 0.00 0.01 0.01 96 1026.0
20181219141021 40 0.0 0.0 0.00 0.01 0.01 96 1025.9
20181219140022 40 0.0 0.0 0.00 0.01 0.01 96 1025.9
20181219135021 39 0.0 0.0 0.00 0.01 0.01 96 1025.9
20181219134022 38 0.0 0.0 0.00 0.01 0.01 96 1026.0
20181219133022 38 0.0 0.0 0.00 0.01 0.01 96 1026.0
20181219132015 37 0.0 0.0 0.00 0.01 0.01 96 1025.9
20181219131020 36 0.0 0.0 0.00 0.01 0.01 95 1026.1
20181219130020 36 0.0 0.0 0.00 0.01 0.01 95 1025.9
20181219125020 36 0.0 0.0 0.00 0.01 0.01 95 1025.9
20181219124021 36 0.0 0.0 0.01 0.01 0.01 95 1025.9
20181219123020 36 0.0 0.0 0.01 0.01 0.01 95 1026.0
20181219122015 36 0.0 0.0 0.01 0.01 0.01 95 1026.0
20181219121015 36 0.0 0.0 0.01 0.01 0.01 95 1026.1
20181219120021 36 0.0 0.0 0.01 0.01 0.01 95 1026.2
20181219115021 36 0.0 0.0 0.01 0.01 0.01 100 1026.3
20181219114020 36 0.0 0.0 0.00 0.00 0.00 95 1026.4
20181219113020 37 0.0 0.0 0.00 0.00 0.00 95 1026.7
20181219112022 37 0.0 0.0 0.00 0.00 0.00 95 1026.7
20181219111015 36 0.0 0.0 0.00 0.00 0.00 95 1026.9
20181219110020 37 0.0 0.0 0.00 0.00 0.00 95 1027.0
20181219105021 37 0.0 0.0 0.00 0.00 0.00 95 1027.1
20181219104035 37 0.0 0.0 0.00 0.00 0.00 95 1027.2
20181219103021 37 0.0 0.0 0.00 0.00 0.00 95 1027.4
20181219102020 37 0.0 0.0 0.00 0.00 0.00 95 1027.4
20181219101015 37 0.0 0.0 0.00 0.00 0.00 95 1027.4
20181219100015 37 0.0 0.0 0.00 0.00 0.00 95 1027.5
20181219095020 37 0.0 0.0 0.00 0.00 0.00 95 1027.6
20181219094020 37 0.0 0.0 0.00 0.00 0.00 95 1027.7
20181219093020 38 0.0 0.0 0.00 0.00 0.00 94 1027.8
20181219092020 38 0.0 0.0 0.00 0.00 0.00 94 1027.8
20181219091017 38 0.0 0.0 0.00 0.00 0.00 95 1027.8
20181219090022 38 0.0 0.0 0.00 0.00 0.00 95 1027.9
20181219085022 38 0.0 0.0 0.00 0.00 0.00 94 1028.1
20181219084022 38 0.0 0.0 0.00 0.00 0.00 95 1028.1
20181219083022 38 0.0 0.0 0.00 0.00 0.00 94 1028.2
20181219082022 38 0.0 0.0 0.00 0.00 0.00 94 1028.2
20181219081017 38 0.0 0.0 0.00 0.00 0.00 94 1028.0
20181219080021 38 0.0 0.0 0.00 0.00 0.00 94 1028.0
20181219075020 38 0.0 0.0 0.00 0.00 0.00 94 1028.0
20181219074015 38 0.0 0.0 0.00 0.00 0.00 94 1028.0
20181219073020 38 0.0 0.0 0.00 0.00 0.00 94 1027.9
20181219072022 39 0.0 0.0 0.00 0.00 0.00 94 1027.9
20181219071020 39 0.0 0.0 0.00 0.00 0.00 94 1027.8
20181219070020 39 0.0 0.0 0.00 0.00 0.00 94 1027.9
20181219065020 38 0.0 0.0 0.00 0.00 0.00 93 1028.0
20181219064015 39 0.0 0.0 0.00 0.00 0.00 93 1027.7
20181219063016 39 0.0 0.0 0.00 0.00 0.00 93 1027.6
20181219062020 39 0.0 0.0 0.00 0.00 0.00 93 1027.6
20181219061020 39 0.0 0.0 0.00 0.00 0.00 93 1027.4
20181219060020 39 0.0 0.0 0.00 0.00 0.00 92 1027.4
20181219055022 40 0.0 0.0 0.00 0.00 0.00 93 1027.1
20181219054017 40 0.0 0.0 0.00 0.00 0.00 93 1027.0
20181219053022 40 0.0 0.0 0.00 0.00 0.00 92 1026.9
20181219052022 40 0.0 0.0 0.00 0.00 0.00 92 1026.8
20181219051022 40 0.0 0.0 0.00 0.00 0.00 92 1026.7
20181219050024 40 0.0 0.0 0.00 0.00 0.00 92 1026.6
20181219045023 40 0.0 0.0 0.00 0.00 0.00 92 1026.5
20181219044017 41 0.0 0.0 0.00 0.00 0.00 91 1026.5
20181219043022 41 0.0 0.0 0.00 0.00 0.00 91 1026.3
20181219042022 41 0.0 0.0 0.00 0.00 0.00 91 1026.2
20181219041023 41 0.0 0.0 0.00 0.00 0.00 90 1026.0
20181219040022 42 0.0 0.0 0.00 0.00 0.00 89 1026.2
20181219035022 42 0.0 0.0 0.00 0.00 0.00 89 1026.2
20181219034021 43 0.0 0.0 0.00 0.00 0.00 89 1026.3
20181219033017 44 0.0 0.0 0.00 0.00 0.00 88 1026.3
20181219032022 44 0.0 0.0 0.00 0.00 0.00 87 1026.2
20181219031022 45 0.0 0.0 0.00 0.00 0.00 86 1026.2
20181219030023 46 0.0 0.0 0.00 0.00 0.00 85 1026.4
20181219025021 46 0.0 0.0 0.00 0.00 0.00 84 1026.4
20181219024022 47 0.0 0.0 0.00 0.00 0.00 84 1026.3
20181219023016 48 0.0 0.0 0.00 0.00 0.00 81 1026.3
20181219022021 49 0.0 0.0 0.00 0.00 0.00 82 1026.4
20181219021021 48 0.0 0.0 0.00 0.00 0.00 84 1026.5
20181219020023 47 0.0 0.0 0.00 0.00 0.00 84 1026.3
20181219015030 47 0.0 0.0 0.00 0.00 0.00 79 1026.3
20181219014021 48 0.0 0.0 0.00 0.00 0.00 76 1026.3
20181219013021 49 0.0 0.0 0.00 0.00 0.00 76 1026.4
20181219012016 50 0.0 0.0 0.00 0.00 0.00 72 1026.4
20181219011021 51 0.0 0.0 0.00 0.00 0.00 70 1026.5
20181219010023 52 0.0 0.0 0.00 0.00 0.00 69 1026.5
20181219005024 53 0.0 0.0 0.00 0.00 0.00 67 1026.4
20181219004021 54 0.0 0.0 0.00 0.00 0.00 65 1026.5
20181219003022 55 0.0 0.0 0.00 0.00 0.00 64 1026.5
20181219002016 56 0.0 0.0 0.00 0.00 0.00 62 1026.6
20181219001016 57 0.0 0.0 0.00 0.00 0.00 60 1026.5
20181219000021 57 0.0 3.0 0.00 0.00 0.00 59 1026.6
20181218235021 57 270 3.0 7.0 0.00 0.00 0.00 60 1026.6
20181218234021 58 270 4.0 9.0 0.00 0.00 0.00 58 1026.7
20181218233021 58 270 4.0 7.0 0.00 0.00 0.00 57 1026.6
20181218232021 58 270 4.0 9.0 0.00 0.00 0.00 56 1026.6
20181218231016 58 270 5.0 10.0 0.00 0.00 0.00 58 1026.6
20181218230021 59 270 4.0 11.0 0.00 0.00 0.00 57 1026.6
20181218225021 59 270 4.0 10.0 0.00 0.00 0.00 58 1026.7
20181218224021 59 270 4.0 9.0 0.00 0.00 0.00 59 1026.6
20181218223021 59 270 5.0 10.0 0.00 0.00 0.00 61 1026.6
20181218222021 59 270 5.0 11.0 0.00 0.00 0.00 62 1026.6
20181218221016 59 270 7.0 12.0 0.00 0.00 0.00 61 1026.6
20181218220021 59 247 5.0 11.0 0.00 0.00 0.00 64 1026.6
20181218215023 59 270 5.0 13.0 0.00 0.00 0.00 63 1026.8
20181218214021 59 270 4.0 10.0 0.00 0.00 0.00 64 1026.9
20181218213021 58 270 5.0 11.0 0.00 0.00 0.00 66 1026.9
20181218212021 59 270 5.0 10.0 0.00 0.00 0.00 64 1027.1
20181218211016 60 270 3.0 11.0 0.00 0.00 0.00 61 1027.2
20181218210016 59 270 4.0 7.0 0.00 0.00 0.00 50 1027.2
20181218205021 59 270 3.0 7.0 0.00 0.00 0.00 55 1027.4
20181218204021 59 270 3.0 6.0 0.00 0.00 0.00 55 1027.5
20181218203021 59 270 4.0 11.0 0.00 0.00 0.00 54 1027.5
20181218202019 59 270 4.0 7.0 0.00 0.00 0.00 57 1027.6
20181218201021 58 292 3.0 7.0 0.00 0.00 0.00 58 1027.7
20181218200015 58 270 3.0 7.0 0.00 0.00 0.00 59 1027.8
20181218195021 58 270 3.0 6.0 0.00 0.00 0.00 62 1028.0
20181218194021 58 270 2.0 7.0 0.00 0.00 0.00 61 1028.0
20181218193020 57 270 1.0 6.0 0.00 0.00 0.00 68 1028.3
20181218192015 56 225 2.0 6.0 0.00 0.00 0.00 74 1028.4
20181218191021 56 270 2.0 5.0 0.00 0.00 0.00 76 1028.5
20181218190016 56 292 2.0 6.0 0.00 0.00 0.00 74 1028.6
20181218185015 55 0.0 1.0 0.00 0.00 0.00 73 1028.7
20181218184022 54 0.0 2.0 0.00 0.00 0.00 77 1028.7
20181218183021 53 0.0 1.0 0.00 0.00 0.00 82 1028.7
20181218182020 52 0.0 0.0 0.00 0.00 0.00 84 1028.6
20181218181021 52 0.0 1.0 0.00 0.00 0.00 85 1028.8
20181218180020 51 0.0 0.0 0.00 0.00 0.00 90 1028.5
20181218175016 49 0.0 0.0 0.00 0.00 0.00 96 1028.6
20181218174020 47 0.0 0.0 0.00 0.00 0.00 97 1028.5
20181218173020 47 0.0 0.0 0.00 0.00 0.00 97 1028.3
20181218172022 46 0.0 0.0 0.00 0.00 0.00 97 1028.3
20181218171020 45 0.0 0.0 0.00 0.00 0.00 96 1028.0
20181218170020 43 0.0 0.0 0.00 0.00 0.00 96 1027.9
20181218165015 41 0.0 0.0 0.00 0.00 0.00 97 1027.9
20181218164020 39 0.0 0.0 0.00 0.00 0.00 96 1027.7
20181218163020 37 0.0 0.0 0.00 0.00 0.00 96 1027.6
20181218162020 36 0.0 0.0 0.00 0.00 0.00 96 1027.4
20181218161020 35 0.0 0.0 0.00 0.00 0.00 96 1027.2
20181218160020 34 0.0 0.0 0.00 0.00 0.00 96 1026.9
20181218155017 34 0.0 0.0 0.00 0.00 0.00 96 1026.7
20181218154022 33 0.0 0.0 0.00 0.00 0.00 96 1026.7
20181218153024 33 0.0 0.0 0.00 0.01 0.00 96 1026.5
20181218152022 34 0.0 0.0 0.00 0.02 0.00 96 1026.3